Flag for France Weather past 2 weeks in Marseille, France

Now
68 °F

Partly sunny.


Feels Like: 68 °F
Forecast: 70 / 85 °F
Wind: 8 mph from Northwest

Location: Marseille / Marignane

Current Time: Jul 26, 2014 at 9:21:39 AM

Latest Report: Jul 26, 2014 at 8:30 AM


Visibility: N/A

Pressure: 29.89 "Hg

Humidity: 88%

Dew point: 64 °F

Location of MarseilleLocation

Historic Weather in Marseille — Graph

°F

Marseille temperature yesterday

Maximum temperature yesterday: 84 °F (at 5:00 PM)
Minimum temperature yesterday: 70 °F (at 5:00 AM)
Average temperature yesterday: 75 °F

Past Weeks' High & Low Weather Summary

 TemperatureHumidityPressure
High93 °F (Jul 19, 3:00 PM)94% (Jul 26, 4:30 AM)30.09 "Hg (Jul 26, 4:30 AM)
Low63 °F (Jul 15, 5:30 AM)21% (Jul 19, 3:00 PM)29.77 "Hg (Jul 20, 2:00 PM)
Average76 °F57%29.93 "Hg
* Reported Jul 11 8:00 AM — Jul 26 8:00 AM, Marseille, Weather by CustomWeather, © 2014

Note: Actual official high and low records may vary slightly from our data, if they occured in-between our weather recording intervals... More about our weather records

Advertising

Marseille weather history for previous 24 hours

 ConditionsComfort  
Time TempWeatherWind HumidityBarometerVisibility
8:00 AM
Jul 26
68 °FPassing clouds.7 mph83%29.89 "HgN/A
7:30 AM68 °FPassing clouds.8 mph83%29.89 "HgN/A
7:00 AM66 °FClear.8 mph88%29.89 "Hg10 mi
6:30 AM64 °FClear.No wind88%29.89 "Hg10 mi
6:00 AM64 °FClear.3 mph88%29.89 "Hg10 mi
5:30 AM64 °FClear.3 mph88%29.89 "Hg10 mi
5:00 AM64 °FClear.No wind88%29.89 "Hg10 mi
4:30 AM64 °FClear.2 mph94%29.89 "HgN/A
4:00 AM64 °FClear.5 mph88%29.89 "HgN/A
3:30 AM66 °FClear.3 mph83%29.89 "HgN/A
3:00 AM66 °FClear.3 mph83%29.89 "HgN/A
2:30 AM66 °FClear.6 mph88%29.89 "HgN/A
2:00 AM68 °FClear.3 mph78%29.92 "HgN/A
1:30 AM68 °FClear.2 mph83%29.89 "HgN/A
1:00 AM68 °FPassing clouds.6 mph83%29.89 "HgN/A
12:30 AM68 °FPassing clouds.3 mph83%29.92 "HgN/A
12:00 AM68 °FPassing clouds.3 mph83%29.89 "HgN/A
11:30 PM
Jul 25
70 °FPassing clouds.3 mph78%29.89 "HgN/A
11:00 PM70 °FPassing clouds.5 mph78%29.92 "HgN/A
10:30 PM70 °FPassing clouds.5 mph83%29.92 "HgN/A
10:00 PM70 °FPassing clouds.9 mph83%29.89 "HgN/A
9:30 PM72 °FScattered clouds.8 mph83%29.89 "HgN/A
9:00 PM72 °FBroken clouds.6 mph78%29.89 "HgN/A
8:30 PM70 °FBroken clouds.10 mph83%29.89 "HgN/A
8:00 PM70 °FThunderstorms. Broken clouds.16 mph83%29.89 "Hg6 mi
7:30 PM73 °FThunderstorms. Broken clouds.8 mph89%29.89 "Hg3 mi
7:00 PM75 °FRain. Broken clouds.16 mph78%29.89 "Hg3 mi
6:30 PM77 °FBroken clouds.12 mph74%29.89 "HgN/A
6:12 PM79 °FPartly sunny.16 mph70%29.86 "HgN/A
6:00 PM79 °FPartly sunny.20 mph70%29.86 "HgN/A
5:30 PM81 °FPartly sunny.12 mph62%29.86 "HgN/A
5:00 PM84 °FPartly sunny.8 mph51%29.83 "HgN/A
4:30 PM82 °FPartly sunny.9 mph58%29.83 "HgN/A
4:00 PM82 °FBroken clouds.10 mph55%29.86 "HgN/A
3:30 PM82 °FBroken clouds.9 mph62%29.86 "HgN/A
3:00 PM81 °FMore clouds than sun.12 mph66%29.89 "HgN/A
2:30 PM81 °FMostly cloudy.8 mph62%29.89 "HgN/A
2:00 PM82 °FBroken clouds.7 mph58%29.89 "HgN/A
1:30 PM81 °FPartly sunny.8 mph62%29.89 "HgN/A
1:00 PM79 °FMostly cloudy.9 mph65%29.92 "HgN/A
12:30 PM79 °FBroken clouds.12 mph65%29.92 "HgN/A
12:00 PM79 °FPartly sunny.9 mph65%29.92 "HgN/A
11:30 AM79 °FPartly sunny.7 mph65%29.89 "HgN/A
11:00 AM77 °FMostly cloudy.9 mph69%29.86 "HgN/A
10:30 AM77 °FMore clouds than sun.6 mph69%29.89 "HgN/A
10:00 AM77 °FMore clouds than sun.2 mph69%29.92 "HgN/A
9:30 AM77 °FOvercast.No wind69%29.92 "HgN/A
9:00 AM75 °FPartly sunny.No wind69%29.92 "HgN/A
Weather by CustomWeather, © 2014

See weather overviewHow to use our weather pages